�������l�o���
Date,Time,MP-1(��Sv/h),MP-2(��Sv/h),MP-3(��Sv/h),MP-4(��Sv/h),MP-5(��Sv/h),MP-6(��Sv/h),MP-7(��Sv/h),MP-8(��Sv/h),����,����(m/s),���J
2023/07/01,00:00,0.514,0.781,0.483,0.933,0.681,0.321,0.561,0.529,��쐼,2.6,�L
2023/07/01,00:10,0.514,0.781,0.482,0.932,0.681,0.320,0.560,0.528,���쐼,4.3,��
2023/07/01,00:20,0.513,0.782,0.482,0.933,0.681,0.321,0.560,0.528,�쐼,5.0,��
2023/07/01,00:30,0.514,0.781,0.482,0.935,0.681,0.323,0.559,0.528,���쐼,5.9,�L
2023/07/01,00:40,0.513,0.781,0.480,0.935,0.681,0.322,0.561,0.529,���쐼,6.2,�L
2023/07/01,00:50,0.513,0.781,0.483,0.934,0.679,0.321,0.561,0.528,��,6.4,�L
2023/07/01,01:00,0.514,0.781,0.483,0.934,0.680,0.322,0.560,0.528,��,5.6,�L
2023/07/01,01:10,0.513,0.779,0.482,0.935,0.680,0.321,0.561,0.529,���쐼,5.1,��
2023/07/01,01:20,0.512,0.783,0.481,0.934,0.683,0.322,0.561,0.528,���쐼,6.5,��
2023/07/01,01:30,0.514,0.783,0.481,0.935,0.681,0.322,0.561,0.527,���쐼,5.7,��
2023/07/01,01:40,0.511,0.780,0.481,0.935,0.681,0.322,0.560,0.529,���쐼,5.5,��
2023/07/01,01:50,0.512,0.781,0.482,0.935,0.680,0.320,0.561,0.528,�쐼,3.6,��
2023/07/01,02:00,0.513,0.781,0.483,0.932,0.681,0.323,0.561,0.529,�쐼,1.7,��
2023/07/01,02:10,0.513,0.780,0.481,0.935,0.682,0.321,0.562,0.528,��쐼,0.9,��
2023/07/01,02:20,0.513,0.781,0.482,0.934,0.682,0.322,0.562,0.528,��,2.3,��
2023/07/01,02:30,0.513,0.780,0.481,0.934,0.680,0.321,0.563,0.528,��,4.6,��
2023/07/01,02:40,0.513,0.780,0.481,0.936,0.680,0.323,0.561,0.529,��,3.8,��
2023/07/01,02:50,0.513,0.779,0.482,0.934,0.682,0.321,0.562,0.527,���쐼,2.9,��
2023/07/01,03:00,0.512,0.780,0.482,0.935,0.681,0.321,0.561,0.531,��쓌,0.9,��
2023/07/01,03:10,0.513,0.778,0.481,0.934,0.683,0.322,0.561,0.528,��,2.5,��
2023/07/01,03:20,0.513,0.778,0.481,0.934,0.682,0.321,0.561,0.527,��쓌,1.2,��
2023/07/01,03:30,0.513,0.780,0.481,0.934,0.683,0.321,0.562,0.527,�쓌,2.6,��
2023/07/01,03:40,0.511,0.781,0.481,0.935,0.681,0.322,0.561,0.529,��쓌,3.2,��
2023/07/01,03:50,0.512,0.781,0.482,0.934,0.681,0.321,0.562,0.527,��쓌,2.0,��
2023/07/01,04:00,0.512,0.780,0.483,0.937,0.683,0.321,0.563,0.529,��,1.5,��
2023/07/01,04:10,0.511,0.781,0.481,0.935,0.682,0.322,0.561,0.529,��쐼,1.7,��
2023/07/01,04:20,0.512,0.780,0.482,0.933,0.681,0.321,0.560,0.530,���쐼,2.0,��
2023/07/01,04:30,0.513,0.780,0.481,0.937,0.681,0.321,0.562,0.528,�쐼,2.0,��
2023/07/01,04:40,0.513,0.780,0.483,0.934,0.681,0.321,0.561,0.529,���k��,1.1,��
2023/07/01,04:50,0.513,0.783,0.483,0.934,0.682,0.320,0.562,0.529,�k�k��,1.1,�L
2023/07/01,05:00,0.513,0.783,0.483,0.937,0.683,0.321,0.560,0.531,�k,1.5,�L
2023/07/01,05:10,0.514,0.783,0.485,0.938,0.682,0.321,0.562,0.529,�k��,2.2,�L
2023/07/01,05:20,0.516,0.784,0.485,0.936,0.683,0.323,0.560,0.529,�k�k��,2.9,�L
2023/07/01,05:30,0.517,0.785,0.486,0.938,0.685,0.323,0.564,0.530,�k�k��,2.6,�L
2023/07/01,05:40,0.518,0.784,0.485,0.940,0.684,0.326,0.562,0.529,�k�k��,3.4,�L
2023/07/01,05:50,0.517,0.782,0.484,0.939,0.685,0.324,0.563,0.530,�k��,3.1,�L
2023/07/01,06:00,0.517,0.783,0.484,0.939,0.684,0.325,0.561,0.530,-,CALM,�L
2023/07/01,06:10,0.514,0.783,0.484,0.938,0.683,0.325,0.563,0.530,��,0.9,�L
2023/07/01,06:20,-,-,-,-,-,-,-,-,-,-,-
2023/07/01,06:30,0.515,0.783,0.484,0.937,0.683,0.325,0.562,0.529,�k�k��,1.4,�L
2023/07/01,06:40,0.516,0.782,0.483,0.937,0.685,0.323,0.561,0.529,�k�k��,2.6,�L
2023/07/01,06:50,0.516,0.782,0.484,0.936,0.684,0.323,0.562,0.528,�k,2.6,�L
2023/07/01,07:00,0.515,0.783,0.484,0.935,0.683,0.323,0.561,0.528,�k�k��,2.6,�L
2023/07/01,07:10,0.514,0.783,0.486,0.938,0.684,0.322,0.561,0.529,�k�k��,3.2,�L
2023/07/01,07:20,0.515,0.783,0.484,0.937,0.683,0.323,0.559,0.528,�k,3.0,��
2023/07/01,07:30,0.514,0.782,0.483,0.936,0.682,0.322,0.562,0.528,�k,3.0,��
2023/07/01,07:40,0.515,0.783,0.480,0.938,0.684,0.321,0.561,0.527,�k�k��,2.2,�L
2023/07/01,07:50,0.515,0.781,0.482,0.935,0.681,0.322,0.561,0.527,���k��,2.0,�L
2023/07/01,08:00,0.513,0.781,0.481,0.936,0.683,0.321,0.561,0.527,�k�k��,2.0,��
2023/07/01,08:10,0.514,0.781,0.481,0.937,0.681,0.321,0.562,0.527,�k,1.9,��
2023/07/01,08:20,0.513,0.780,0.481,0.936,0.683,0.320,0.559,0.527,�k��,1.7,��
2023/07/01,08:30,0.513,0.780,0.482,0.938,0.681,0.320,0.560,0.528,�k,1.5,�L
2023/07/01,08:40,0.513,0.780,0.481,0.935,0.682,0.321,0.560,0.528,���k��,2.0,�L
2023/07/01,08:50,0.513,0.780,0.482,0.935,0.682,0.320,0.559,0.528,���k��,1.2,�L
2023/07/01,09:00,0.513,0.781,0.482,0.937,0.683,0.320,0.558,0.526,���k��,1.4,�L
2023/07/01,09:10,0.513,0.782,0.482,0.938,0.684,0.321,0.559,0.524,��,0.9,�L
2023/07/01,09:20,0.514,0.783,0.480,0.937,0.682,0.321,0.560,0.526,���k��,1.7,�L
2023/07/01,09:30,0.515,0.785,0.483,0.939,0.684,0.322,0.561,0.525,��,2.3,�L
2023/07/01,09:40,0.515,0.783,0.482,0.937,0.686,0.321,0.559,0.526,��,2.0,�L
2023/07/01,09:50,0.516,0.782,0.484,0.938,0.684,0.320,0.560,0.528,��,3.3,�L
2023/07/01,10:00,0.516,0.783,0.483,0.938,0.685,0.322,0.558,0.528,���k��,2.9,��
2023/07/01,10:10,0.516,0.784,0.482,0.938,0.685,0.322,0.558,0.527,��,3.6,��
2023/07/01,10:20,0.515,0.786,0.482,0.939,0.687,0.320,0.559,0.528,���k��,3.5,��
2023/07/01,10:30,0.517,0.787,0.485,0.937,0.685,0.321,0.559,0.527,���k��,3.5,��
2023/07/01,10:40,0.516,0.783,0.482,0.939,0.685,0.322,0.560,0.527,�k��,3.2,�L
2023/07/01,10:50,0.517,0.784,0.481,0.936,0.684,0.320,0.560,0.526,�k��,3.2,�L
2023/07/01,11:00,0.518,0.783,0.481,0.939,0.686,0.321,0.558,0.528,�k�k��,3.4,�L
2023/07/01,11:10,0.516,0.784,0.483,0.938,0.687,0.322,0.561,0.527,�k�k��,4.1,�L
2023/07/01,11:20,0.515,0.785,0.485,0.937,0.685,0.321,0.560,0.527,�k�k��,4.0,�L
2023/07/01,11:30,0.516,0.786,0.484,0.938,0.686,0.322,0.559,0.526,�k�k��,3.2,�L
2023/07/01,11:40,0.517,0.784,0.483,0.939,0.685,0.321,0.559,0.526,�k��,2.6,��
2023/07/01,11:50,0.517,0.787,0.482,0.941,0.684,0.320,0.560,0.526,�k��,2.9,�L
2023/07/01,12:00,0.518,0.787,0.483,0.938,0.685,0.321,0.559,0.523,���쓌,2.6,�L
2023/07/01,12:10,0.517,0.784,0.483,0.938,0.684,0.322,0.554,0.524,���k��,1.5,�L
2023/07/01,12:20,0.517,0.785,0.482,0.938,0.682,0.322,0.556,0.525,�k��,1.5,�L
2023/07/01,12:30,0.516,0.785,0.482,0.938,0.684,0.322,0.555,0.526,��,1.4,�L
2023/07/01,12:40,0.516,0.785,0.483,0.937,0.682,0.323,0.556,0.525,��쓌,3.0,�L
2023/07/01,12:50,0.517,0.784,0.483,0.939,0.684,0.323,0.555,0.525,���쓌,1.7,�L
2023/07/01,13:00,0.518,0.787,0.485,0.938,0.684,0.320,0.556,0.524,�k�k��,0.6,�L
2023/07/01,13:10,0.516,0.787,0.483,0.939,0.682,0.321,0.557,0.522,�k��,1.5,�L
2023/07/01,13:20,0.517,0.785,0.481,0.940,0.683,0.321,0.556,0.524,���쓌,1.9,��
2023/07/01,13:30,0.516,0.786,0.481,0.938,0.682,0.319,0.556,0.524,���쓌,1.5,�L
2023/07/01,13:40,0.518,0.787,0.480,0.937,0.682,0.320,0.555,0.522,�k��,1.1,�L
2023/07/01,13:50,0.517,0.786,0.483,0.938,0.681,0.318,0.555,0.524,���k��,1.7,�L
2023/07/01,14:00,0.517,0.783,0.482,0.937,0.684,0.319,0.556,0.522,��,1.7,��
2023/07/01,14:10,0.515,0.785,0.478,0.935,0.680,0.319,0.555,0.523,�k��,1.2,��
2023/07/01,14:20,0.514,0.783,0.482,0.937,0.681,0.319,0.555,0.523,�k��,2.2,��
2023/07/01,14:30,0.514,0.784,0.481,0.937,0.681,0.317,0.556,0.523,�k��,2.5,��
2023/07/01,14:40,0.513,0.784,0.482,0.937,0.681,0.318,0.555,0.522,�k��,2.0,��
2023/07/01,14:50,0.515,0.784,0.481,0.939,0.679,0.318,0.556,0.524,��,1.5,��
2023/07/01,15:00,0.513,0.783,0.481,0.938,0.680,0.319,0.555,0.523,��,1.5,��
2023/07/01,15:10,0.514,0.782,0.482,0.935,0.682,0.319,0.556,0.525,�k��,1.2,��
2023/07/01,15:20,0.514,0.782,0.480,0.936,0.679,0.317,0.557,0.523,��,1.5,��
2023/07/01,15:30,0.515,0.784,0.481,0.937,0.682,0.317,0.555,0.523,���k��,1.2,��
2023/07/01,15:40,0.513,0.785,0.481,0.936,0.681,0.318,0.555,0.525,�k�k��,1.2,��
2023/07/01,15:50,0.513,0.783,0.479,0.936,0.679,0.317,0.556,0.524,�k�k��,0.9,��
2023/07/01,16:00,0.513,0.782,0.478,0.936,0.681,0.320,0.555,0.524,�k�k��,0.9,��
2023/07/01,16:10,0.513,0.782,0.479,0.936,0.680,0.318,0.557,0.525,-,CALM,��
2023/07/01,16:20,0.514,0.784,0.479,0.936,0.682,0.319,0.556,0.524,�k�k��,0.6,��
2023/07/01,16:30,0.511,0.781,0.481,0.937,0.682,0.319,0.555,0.524,�k,0.9,��
2023/07/01,16:40,0.513,0.783,0.481,0.936,0.680,0.318,0.556,0.523,�k�k��,0.9,��
2023/07/01,16:50,0.513,0.785,0.480,0.937,0.683,0.316,0.557,0.524,�k��,1.9,��
2023/07/01,17:00,0.515,0.785,0.481,0.936,0.684,0.318,0.555,0.524,�k�k��,2.0,��
2023/07/01,17:10,0.515,0.785,0.481,0.938,0.682,0.320,0.556,0.525,�k�k��,1.7,��
2023/07/01,17:20,0.515,0.784,0.482,0.936,0.682,0.317,0.556,0.523,�k�k��,1.5,��
2023/07/01,17:30,0.515,0.784,0.481,0.939,0.681,0.318,0.557,0.524,�k�k��,1.4,��
2023/07/01,17:40,0.513,0.784,0.480,0.935,0.684,0.317,0.558,0.523,�k,1.7,��
2023/07/01,17:50,0.514,0.783,0.482,0.937,0.685,0.318,0.557,0.524,�k,1.7,��
2023/07/01,18:00,0.514,0.784,0.480,0.940,0.683,0.320,0.557,0.525,�k,2.0,��
2023/07/01,18:10,0.514,0.785,0.481,0.939,0.683,0.319,0.556,0.526,�k,2.0,��
2023/07/01,18:20,0.514,0.785,0.481,0.937,0.683,0.319,0.557,0.526,�k�k��,1.7,��
2023/07/01,18:30,0.516,0.786,0.482,0.938,0.683,0.319,0.558,0.525,�k�k��,1.5,�L
2023/07/01,18:40,0.515,0.786,0.482,0.938,0.682,0.320,0.556,0.525,�k�k��,0.6,�L
2023/07/01,18:50,0.515,0.787,0.481,0.938,0.684,0.320,0.556,0.525,�k�k��,1.1,�L
2023/07/01,19:00,0.515,0.786,0.482,0.938,0.684,0.319,0.558,0.525,�k,1.1,��
2023/07/01,19:10,0.515,0.787,0.482,0.938,0.684,0.318,0.558,0.527,�k�k��,1.1,��
2023/07/01,19:20,0.516,0.786,0.483,0.938,0.684,0.320,0.557,0.527,�k�k��,1.5,��
2023/07/01,19:30,0.517,0.787,0.484,0.939,0.683,0.319,0.559,0.526,�k��,1.5,�L
2023/07/01,19:40,0.517,0.787,0.483,0.939,0.684,0.320,0.559,0.528,�k��,1.4,�L
2023/07/01,19:50,0.515,0.788,0.483,0.938,0.682,0.320,0.559,0.526,��,0.8,��
2023/07/01,20:00,0.517,0.784,0.483,0.939,0.683,0.321,0.558,0.527,���k��,1.4,��
2023/07/01,20:10,0.516,0.787,0.483,0.938,0.685,0.320,0.558,0.526,�k��,1.9,��
2023/07/01,20:20,0.517,0.786,0.482,0.936,0.684,0.320,0.559,0.526,���k��,2.5,��
2023/07/01,20:30,0.516,0.785,0.484,0.939,0.683,0.320,0.558,0.526,���k��,2.6,�L
2023/07/01,20:40,0.517,0.787,0.483,0.942,0.683,0.319,0.557,0.527,��,3.3,�L
2023/07/01,20:50,0.516,0.787,0.484,0.940,0.683,0.320,0.558,0.529,���k��,3.2,��
2023/07/01,21:00,0.516,0.788,0.482,0.940,0.683,0.319,0.560,0.526,���k��,3.0,��
2023/07/01,21:10,0.516,0.787,0.482,0.940,0.684,0.321,0.559,0.527,�k��,2.3,��
2023/07/01,21:20,0.516,0.787,0.483,0.937,0.683,0.321,0.558,0.526,���k��,3.3,��
2023/07/01,21:30,0.516,0.788,0.482,0.938,0.683,0.320,0.559,0.527,�k��,3.1,��
2023/07/01,21:40,0.516,0.786,0.484,0.940,0.683,0.321,0.559,0.527,�k��,3.2,��
2023/07/01,21:50,0.516,0.788,0.483,0.940,0.684,0.320,0.559,0.526,���k��,3.8,��
2023/07/01,22:00,0.515,0.787,0.484,0.940,0.684,0.319,0.558,0.527,�k��,3.3,��
2023/07/01,22:10,0.516,0.787,0.484,0.939,0.685,0.320,0.558,0.526,�k��,4.5,��
2023/07/01,22:20,0.516,0.789,0.485,0.942,0.684,0.321,0.559,0.528,�k��,5.0,��
2023/07/01,22:30,0.518,0.787,0.483,0.939,0.683,0.321,0.559,0.527,�k��,5.3,��
2023/07/01,22:40,0.515,0.788,0.483,0.938,0.684,0.320,0.558,0.528,�k��,4.7,��
2023/07/01,22:50,0.514,0.788,0.484,0.940,0.685,0.318,0.557,0.526,��,3.2,��
2023/07/01,23:00,0.517,0.788,0.484,0.940,0.685,0.319,0.559,0.528,���k��,3.7,��
2023/07/01,23:10,0.517,0.787,0.484,0.940,0.686,0.320,0.560,0.529,���k��,3.8,��
2023/07/01,23:20,0.515,0.788,0.484,0.942,0.684,0.319,0.559,0.527,���k��,3.7,��
2023/07/01,23:30,0.514,0.787,0.485,0.942,0.685,0.320,0.559,0.528,���k��,2.6,��
2023/07/01,23:40,0.516,0.787,0.483,0.942,0.686,0.320,0.558,0.528,���k��,2.5,��
2023/07/01,23:50,-,-,-,-,-,-,-,-,-,-,-
